Flag for Sweden Weather past 2 weeks in Gothenburg, Sweden

Now
55 °F

Sunny.


Feels Like: 55 °F
Forecast: 45 / 65 °F
Wind: 3 mph from Northeast

Location: Gothenburg / Save

Current Time: Sep 19, 2014 at 10:39:27 AM

Latest Report: Sep 19, 2014 at 9:50 AM


Visibility: 10 mi

Pressure: 30.07 "Hg

Humidity: 82%

Dew point: 50 °F

Location of GothenburgLocation

Historic Weather in Gothenburg — Graph

°F

Gothenburg temperature yesterday

Maximum temperature yesterday: 68 °F (at 2:20 PM)
Minimum temperature yesterday: 43 °F (at 6:50 AM)
Average temperature yesterday: 56 °F

Past Weeks' High & Low Weather Summary

 TemperatureHumidityPressure
High73 °F (Sep 6, 3:20 PM)100% (Sep 4, 11:20 PM)30.39 "Hg (Sep 4, 11:20 PM)
Low43 °F (Sep 5, 6:50 AM)40% (Sep 16, 3:50 PM)29.71 "Hg (Sep 9, 4:50 AM)
Average57 °F81%30.14 "Hg
* Reported Sep 4 9:20 AM — Sep 19 9:20 AM, Gothenburg, Weather by CustomWeather, © 2014

Note: Actual official high and low records may vary slightly from our data, if they occured in-between our weather recording intervals... More about our weather records

Advertising

Gothenburg weather history for previous 24 hours

 ConditionsComfort  
Time TempWeatherWind HumidityBarometerVisibility
9:20 AM
Sep 19
52 °FSunny.2 mph94%30.07 "Hg10 mi
8:50 AM50 °FSunny.1 mph94%30.07 "Hg10 mi
8:20 AM46 °FSunny.1 mph100%30.07 "Hg10 mi
7:50 AM45 °FLight fog.2 mph100%30.07 "HgN/A
7:20 AM43 °FFog.1 mph100%30.07 "HgN/A
6:50 AM45 °FLight fog.No wind100%30.07 "HgN/A
6:20 AM45 °FLight fog.2 mph93%30.07 "HgN/A
5:50 AM46 °FFog.2 mph100%30.07 "HgN/A
5:20 AM46 °FClear.1 mph100%30.07 "Hg10 mi
4:50 AM46 °FClear.No wind100%30.07 "Hg10 mi
4:20 AM46 °FClear.No wind93%30.09 "Hg10 mi
3:50 AM48 °FClear.2 mph94%30.09 "Hg10 mi
3:20 AM46 °FClear.1 mph100%30.09 "Hg10 mi
2:50 AM48 °FClear.3 mph94%30.09 "Hg10 mi
2:20 AM48 °FClear.No wind94%30.09 "Hg10 mi
1:50 AM48 °FPassing clouds.1 mph94%30.09 "HgN/A
1:20 AM48 °FPassing clouds.1 mph94%30.09 "HgN/A
12:50 AM50 °FClear.No wind94%30.09 "Hg10 mi
12:20 AM50 °FClear.2 mph94%30.09 "Hg10 mi
11:50 PM
Sep 18
50 °FClear.No wind94%30.09 "Hg10 mi
11:20 PM52 °FClear.No wind94%30.12 "Hg10 mi
10:50 PM50 °FClear.2 mph94%30.12 "Hg10 mi
10:20 PM52 °FClear.1 mph88%30.12 "Hg10 mi
9:20 PM52 °FClear.2 mph94%30.12 "Hg10 mi
8:50 PM54 °FClear.No wind88%30.12 "Hg10 mi
8:20 PM57 °FSunny.No wind82%30.12 "Hg10 mi
7:50 PM55 °FSunny.1 mph82%30.12 "Hg10 mi
7:20 PM57 °FSunny.3 mph77%30.09 "Hg10 mi
6:50 PM63 °FSunny.3 mph68%30.09 "Hg10 mi
6:20 PM66 °FSunny.6 mph56%30.09 "Hg10 mi
5:50 PM66 °FSunny.6 mph56%30.09 "Hg10 mi
5:20 PM68 °FPassing clouds.6 mph53%30.09 "HgN/A
4:50 PM68 °FSunny.6 mph49%30.09 "Hg10 mi
4:20 PM68 °FSunny.8 mph49%30.12 "Hg10 mi
3:50 PM68 °FPassing clouds.8 mph49%30.12 "HgN/A
3:20 PM68 °FSunny.10 mph49%30.12 "Hg10 mi
2:50 PM68 °FPassing clouds.8 mph49%30.12 "HgN/A
2:20 PM68 °FPassing clouds.8 mph49%30.12 "HgN/A
1:50 PM66 °FSunny.9 mph52%30.12 "Hg10 mi
1:20 PM66 °FSunny.8 mph56%30.12 "Hg10 mi
12:50 PM66 °FSunny.8 mph60%30.12 "Hg10 mi
12:20 PM64 °FPassing clouds.5 mph68%30.15 "HgN/A
11:50 AM61 °FSunny.7 mph72%30.15 "Hg10 mi
11:20 AM59 °FSunny.8 mph72%30.15 "Hg10 mi
10:50 AM59 °FSunny.7 mph77%30.15 "Hg10 mi
10:20 AM57 °FSunny.7 mph82%30.15 "Hg10 mi
Weather by CustomWeather, © 2014

See weather overviewHow to use our weather pages